Preview of NWS' New Version of Forecast
This preview is not operational and should not be used for support decisions.

Regional Weather Roundup (RWR)

Issued by National Weather Service (NWS)

                            
000
ASUS43 KBIS 260310
RWRND 

NORTH DAKOTA REGIONAL WEATHER ROUNDUP
NATIONAL WEATHER SERVICE BISMARCK ND
1000 PM CDT SUN AUG 25 2019

NOTE: "FAIR" INDICATES FEW OR NO CLOUDS BELOW 12,000 FEET WITH NO
SIGNIFICANT WEATHER AND/OR OBSTRUCTIONS TO VISIBILITY.


NDZ001>003-009>011-017-260400-
NORTHWEST NORTH DAKOTA
  
CITY           SKY/WX    TMP DP  RH WIND       PRES   REMARKS
WILLISTON      PTCLDY    64  52  64 NW8       29.80R                  
MINOT          CLEAR     68  59  73 W9        29.71R                  
MINOT AFB      CLEAR     64  59  83 NW9       29.69R                  
$$
 
NDZ018>021-031>035-040>046-260400-
SOUTHWEST NORTH DAKOTA
  
CITY           SKY/WX    TMP DP  RH WIND       PRES   REMARKS
BISMARCK       PTCLDY    66  59  78 E7        29.73R                  
DICKINSON      PTCLDY    65  50  58 NW8       29.80R                  
GARRISON         N/A     59  57  93 W3        29.74R                  
HETTINGER ARPT MOCLDY    61  52  72 N7        29.81R                  
$$
 
NDZ004>008-012>016-024-026-027-054-260400-
NORTHEAST NORTH DAKOTA
  
CITY           SKY/WX    TMP DP  RH WIND       PRES   REMARKS
GRAND FORKS    RAIN      65  61  87 S15G25    29.72S FOG              
GRND FRKS AFB  RAIN      64  64 100 S15G23    29.72F FOG              
DEVILS LAKE    LGT RAIN  62  58  86 SE14G23   29.64F                  
$$
 
NDZ022-023-025-028>030-036>039-047>053-260400-
SOUTHEAST NORTH DAKOTA
  
CITY           SKY/WX    TMP DP  RH WIND       PRES   REMARKS
FARGO          CLOUDY    67  62  84 S18G32    29.76S                  
JAMESTOWN      LGT RAIN  61  60  97 N10G23    29.74R                  
$$